Lid_Strength_Index
1 1 1 1 1 1 1 1 3 5 5 3 2 1 -0 -1 -1 -1 -1 0 0 1 1 0 -0 -1 -1 -1 -1 -1 -1 -1 -1 -1 -1 -1 -1 -2
1 1 1 0 0 0 1 1 1 3 5 2 2 2 2 -0 -1 -1 0 1 1 1 1 1 0 -0 -0 -1 -1 -1 -1 -1 -1 -1 -1 -1 -1 -1
1 0 1 0 1 1 1 1 1 2 4 2 1 1 1 0 0 -0 -0 -1 1 2 1 2 1 1 0 0 -0 -1 -1 -1 -1 -1 -1 -1 -1 -1
1 1 1 1 1 1 1 1 1 1 2 3 2 1 1 0 0 0 -0 -0 -0 2 2 2 2 2 2 1 1 0 -0 -0 -0 -0 0 -0 -0 -0
1 1 1 1 1 1 1 1 1 1 1 2 3 1 1 1 1 0 0 0 -0 2 3 3 3 2 2 2 2 2 2 2 2 1 1 1 1 0
0 0 0 1 1 1 1 1 1 2 2 2 2 2 2 1 1 2 2 1 1 0 1 2 2 2 2 3 3 3 4 4 4 4 3 3 2 2
1 0 0 0 1 1 1 1 1 2 2 3 3 3 3 2 3 2 2 2 1 0 1 1 2 2 2 3 2 2 3 4 5 5 5 5 4 4
1 1 0 1 0 2 3 2 1 2 2 3 3 3 3 2 2 2 2 3 4 0 1 1 1 2 2 1 2 3 4 4 4 5 6 6 6 5
1 1 1 0 1 0 1 3 3 3 3 1 2 2 2 2 1 2 2 2 3 1 1 2 1 1 0 1 3 4 4 4 4 5 5 6 6 6
0 1 1 1 2 2 1 1 1 1 0 1 1 1 1 0 1 1 1 2 1 1 0 3 1 2 0 1 3 4 4 5 5 6 6 6 7 8
0 0 0 0 6 5 1 1 1 1 1 1 2 3 3 1 1 1 2 3 3 3 1 2 2 2 1 1 1 4 5 6 6 6 6 7 8 9
1 0 5 3 6 5 1 1 2 2 1 1 0 0 0 0 3 1 1 3 3 4 1 3 2 2 4 1 0 3 4 7 8 7 7 7 9 6
1 1 2 4 5 6 6 1 1 1 1 1 1 1 1 1 0 0 0 1 2 3 1 1 2 2 3 3 1 1 2 4 5 7 9 9 9 7
1 1 2 6 5 6 6 4 4 3 2 1 2 2 2 1 1 0 0 0 -0 1 0 1 2 2 3 3 4 1 1 1 2 3 3 6 9 8
0 3 5 6 6 5 4 4 5 3 2 2 2 2 1 1 0 0 0 -0 -0 -0 -0 0 1 1 2 3 3 3 3 2 2 2 2 2 3 5
1 1 1 2 4 3 1 1 1 1 1 2 2 1 1 1 1 1 2 1 2 2 0 0 0 1 2 2 2 3 2 3 3 2 2 2 2 2
2 1 1 1 1 1 1 1 1 1 2 2 2 2 2 2 2 1 1 2 3 3 2 1 0 2 2 2 3 2 2 3 3 3 3 3 3 2
2 2 2 2 2 2 2 2 1 1 1 2 1 2 2 2 2 2 1 2 3 3 3 2 2 3 3 2 1 2 2 2 2 2 3 4 4 3
2 2 2 2 2 1 1 1 2 1 0 1 2 2 2 2 2 2 2 2 3 2 2 2 2 3 5 6 2 6 2 2 2 3 3 4 5 4
3 2 2 1 1 2 1 1 1 1 1 1 1 1 2 2 2 2 2 3 3 2 2 2 3 3 4 4 4 5 8 4 4 4 6 5 5 5
2 2 1 1 1 1 1 1 1 1 1 1 1 1 1 2 2 2 2 5 4 2 3 3 3 4 3 3 4 4 4 7 6 4 4 6 6 6
1 1 1 1 1 1 1 1 1 1 1 1 1 1 1 1 2 2 2 2 2 2 2 1 1 1 2 3 3 3 3 3 4 5 4 4 4 6
1 1 1 1 1 1 1 1 1 1 1 1 1 1 1 2 1 1 2 2 2 2 2 2 2 1 2 2 3 3 3 3 3 3 3 4 4 4